TimeEDT,TemperatureF,Dew PointF,Humidity,Sea Level PressureIn,VisibilityMPH,Wind Direction,Wind SpeedMPH,Gust SpeedMPH,PrecipitationIn,Events,Conditions,WindDirDegrees,DateUTC
12:53 AM,82.9,75.9,79,30.00,10.0,East,9.2,-,N/A,,Partly Cloudy,80,2013-08-20 04:53:00
1:53 AM,82.9,75.9,79,30.00,10.0,East,10.4,-,N/A,,Partly Cloudy,90,2013-08-20 05:53:00
2:23 AM,80.6,75.2,84,29.98,7.0,East,8.1,-,0.00,Rain-Thunderstorm,Rain,80,2013-08-20 06:23:00
2:49 AM,75.2,71.6,89,29.98,1.8,East,18.4,43.7,0.04,Rain-Thunderstorm,Heavy Thunderstorms and Rain,90,2013-08-20 06:49:00
2:53 AM,77.0,70.0,79,29.98,1.5,East,12.7,43.7,0.15,Rain-Thunderstorm,Heavy Thunderstorms and Rain,90,2013-08-20 06:53:00
2:58 AM,75.2,69.8,83,29.98,3.0,East,10.4,29.9,0.05,Rain-Thunderstorm,Thunderstorms and Rain,80,2013-08-20 06:58:00
3:15 AM,77.0,71.6,83,29.98,10.0,East,3.5,-,0.05,Rain,Light Rain,90,2013-08-20 07:15:00
3:24 AM,78.8,71.6,78,29.98,10.0,ESE,3.5,-,0.05,Thunderstorm,Partly Cloudy,110,2013-08-20 07:24:00
3:53 AM,80.1,75.0,85,29.96,10.0,East,10.4,16.1,0.05,Thunderstorm,Partly Cloudy,100,2013-08-20 07:53:00
4:10 AM,80.6,73.4,79,29.97,10.0,SE,10.4,-,N/A,Thunderstorm,Mostly Cloudy,140,2013-08-20 08:10:00
4:19 AM,80.6,75.2,84,29.97,10.0,SSE,11.5,-,N/A,,Mostly Cloudy,160,2013-08-20 08:19:00
4:30 AM,80.6,75.2,84,29.98,4.0,ESE,15.0,21.9,0.01,Rain-Thunderstorm,Heavy Rain,120,2013-08-20 08:30:00
4:35 AM,78.8,75.2,89,29.98,2.0,East,9.2,21.9,0.11,Rain-Thunderstorm,Heavy Rain,90,2013-08-20 08:35:00
4:53 AM,80.1,73.0,79,29.98,10.0,South,8.1,20.7,0.19,Thunderstorm,Thunderstorm,170,2013-08-20 08:53:00
5:30 AM,78.8,73.4,83,29.98,10.0,SE,3.5,-,0.00,Rain,Light Rain,140,2013-08-20 09:30:00
5:53 AM,77.0,73.9,90,29.98,10.0,Calm,Calm,-,0.00,,Clear,0,2013-08-20 09:53:00
6:53 AM,80.1,75.9,87,29.98,10.0,ENE,5.8,-,0.00,,Mostly Cloudy,70,2013-08-20 10:53:00
7:53 AM,80.1,77.0,90,29.99,10.0,ENE,5.8,-,0.01,Rain-Thunderstorm,Light Rain,70,2013-08-20 11:53:00
8:39 AM,80.6,75.2,84,30.00,10.0,East,6.9,-,0.00,,Scattered Clouds,80,2013-08-20 12:39:00
8:53 AM,82.0,75.9,82,30.01,10.0,East,6.9,-,0.00,,Scattered Clouds,80,2013-08-20 12:53:00
9:53 AM,82.0,73.9,76,30.01,10.0,East,8.1,-,0.00,,Partly Cloudy,100,2013-08-20 13:53:00
10:53 AM,84.9,75.9,74,30.02,10.0,East,13.8,-,0.01,Thunderstorm,Scattered Clouds,100,2013-08-20 14:53:00
11:26 AM,84.2,75.2,74,30.03,10.0,East,11.5,-,N/A,,Partly Cloudy,100,2013-08-20 15:26:00
11:35 AM,84.2,75.2,74,30.03,10.0,ESE,12.7,-,N/A,Thunderstorm,Partly Cloudy,110,2013-08-20 15:35:00
11:50 AM,82.4,73.4,74,30.03,10.0,ESE,8.1,23.0,0.00,Rain,Light Rain,110,2013-08-20 15:50:00
11:53 AM,82.9,73.9,74,30.04,10.0,ESE,11.5,23.0,0.00,Rain,Light Rain,110,2013-08-20 15:53:00
12:15 PM,82.4,73.4,74,30.03,10.0,East,10.4,-,0.00,Thunderstorm,Partly Cloudy,100,2013-08-20 16:15:00
12:53 PM,82.0,75.0,79,30.03,10.0,North,11.5,19.6,0.00,Thunderstorm,Overcast,10,2013-08-20 16:53:00
1:06 PM,78.8,73.4,83,30.02,10.0,North,19.6,33.4,0.00,Rain-Thunderstorm,Light Thunderstorms and Rain,350,2013-08-20 17:06:00
1:25 PM,78.8,73.4,83,30.05,1.8,NW,8.1,-,0.03,Rain-Thunderstorm,Heavy Thunderstorms and Rain,310,2013-08-20 17:25:00
1:41 PM,77.0,73.4,89,30.04,3.0,NNE,10.4,20.7,0.16,Rain-Thunderstorm,Light Thunderstorms and Rain,20,2013-08-20 17:41:00
1:53 PM,77.0,73.9,90,30.04,10.0,North,10.4,-,0.16,Rain-Thunderstorm,Light Thunderstorms and Rain,10,2013-08-20 17:53:00
2:22 PM,77.0,73.4,89,30.03,10.0,North,13.8,19.6,0.00,,Overcast,350,2013-08-20 18:22:00
2:28 PM,77.0,73.4,89,30.03,1.5,NNW,26.5,35.7,0.00,Rain-Thunderstorm,Rain,340,2013-08-20 18:28:00
2:31 PM,75.2,73.4,94,30.03,0.5,NNW,13.8,35.7,0.08,Fog-Rain-Thunderstorm,Heavy Rain,330,2013-08-20 18:31:00
2:41 PM,75.2,73.4,94,30.04,1.0,NW,18.4,25.3,0.40,Rain-Thunderstorm,Heavy Thunderstorms and Rain,320,2013-08-20 18:41:00
2:53 PM,75.0,73.9,96,30.05,1.8,NNW,10.4,25.3,0.54,Rain-Thunderstorm,Light Thunderstorms and Rain,330,2013-08-20 18:53:00
3:05 PM,75.2,73.4,94,30.06,0.8,WNW,12.7,-,0.15,Rain-Thunderstorm,Heavy Thunderstorms and Rain,300,2013-08-20 19:05:00
3:19 PM,75.2,73.4,94,30.06,1.0,NNW,9.2,-,0.39,Rain-Thunderstorm,Heavy Thunderstorms and Rain,330,2013-08-20 19:19:00
3:39 PM,75.2,73.4,94,30.04,2.0,WNW,9.2,-,0.60,Rain-Thunderstorm,Thunderstorms and Rain,300,2013-08-20 19:39:00
3:53 PM,75.0,73.0,94,30.03,4.0,NNW,6.9,-,0.63,Rain-Thunderstorm,Thunderstorms and Rain,340,2013-08-20 19:53:00
4:24 PM,75.2,73.4,94,30.01,7.0,NNW,3.5,-,0.06,Rain,Light Rain,340,2013-08-20 20:24:00
4:53 PM,75.9,73.0,91,29.99,10.0,NNE,6.9,-,0.06,Rain,Light Rain,20,2013-08-20 20:53:00
5:53 PM,79.0,73.9,84,29.96,10.0,NE,6.9,-,0.02,,Clear,50,2013-08-20 21:53:00
6:53 PM,80.1,75.0,85,29.97,10.0,NE,4.6,-,0.00,,Clear,50,2013-08-20 22:53:00
7:53 PM,82.0,75.9,82,29.99,10.0,East,11.5,-,N/A,,Clear,100,2013-08-20 23:53:00
8:53 PM,81.0,75.0,82,30.00,10.0,East,10.4,16.1,N/A,,Clear,90,2013-08-21 00:53:00
9:53 PM,82.0,75.0,79,30.01,10.0,East,11.5,-,N/A,,Clear,80,2013-08-21 01:53:00
10:53 PM,82.0,75.9,82,30.02,10.0,ENE,5.8,-,N/A,,Clear,60,2013-08-21 02:53:00
11:53 PM,81.0,75.9,85,30.03,10.0,NE,4.6,-,N/A,,Clear,50,2013-08-21 03:53:00